This demonstration page uses our WeatherBlox Daily Observations layout. Learn more.

36.17497, -115.13722

Hourly Observations for October 31, 2018

Temp ( °F °C ) Dew Point ( °F °C ) Humidity (%) Winds ( mph kmh ) Pressure ( in mb ) Visibility ( mi km ) Precip ( " mm )
12:53 am 00:53 Clear 58 14.4 14 -10 18 18 N 6 9 30.12 1020 10 16.09344 0 0
1:53 am 01:53 Clear 58 14.4 15 -9.4 18 18 N 7 11 30.15 1021 10 16.09344 0 0
2:53 am 02:53 Clear 56 13.3 16 -8.9 21 21 N 12 19 30.15 1021 10 16.09344 0 0
3:53 am 03:53 Clear 55 12.8 17 -8.3 22 22 N 10 17 30.15 1021 10 16.09344 0 0
4:53 am 04:53 Clear 55 12.8 19 -7.2 24 24 N 12 19 30.15 1021 10 16.09344 0 0
5:53 am 05:53 Clear 55 12.8 19 -7.2 24 24 N 13 20 30.18 1022 10 16.09344 0 0
6:53 am 06:53 Clear 54 12.2 19 -7.2 25 25 N 13 20 30.18 1022 10 16.09344 0 0
7:53 am 07:53 Sunny 55 12.8 19 -7.2 24 24 N 15 24 30.21 1023 10 16.09344 0 0
8:53 am 08:53 Sunny 57 13.9 19 -7.2 23 23 NNW 17 28 30.21 1023 10 16.09344 0 0
9:53 am 09:53 Sunny 60 15.6 19 -7.2 20 20 N 20 31 30.21 1023 10 16.09344 0 0
10:53 am 10:53 Sunny 62 16.7 18 -7.8 18 18 N 15 24 30.21 1023 10 16.09344 0 0
11:53 am 11:53 Sunny 63 17.2 17 -8.3 17 17 NNE 9 15 30.21 1023 10 16.09344 0 0
12:53 pm 12:53 Sunny 65 18.3 17 -8.3 16 16 NNW 8 13 30.15 1021 10 16.09344 0 0
1:53 pm 13:53 Sunny 67 19.4 15 -9.4 13 13 N 6 9 30.15 1021 10 16.09344 0 0
2:53 pm 14:53 Sunny 69 20.6 13 -10.6 11 11 NNW 7 11 30.12 1020 10 16.09344 0 0
3:53 pm 15:53 Sunny 67 19.4 15 -9.4 13 13 SE 9 15 30.12 1020 10 16.09344 0 0
4:53 pm 16:53 Sunny 67 19.4 14 -10 13 13 Calm 30.09 1019 10 16.09344 0 0
5:53 pm 17:53 Clear 65 18.3 15 -9.4 14 14 SE 6 9 30.12 1020 10 16.09344 0 0
6:53 pm 18:53 Clear 63 17.2 17 -8.3 17 17 SSW 3 6 30.12 1020 10 16.09344 0 0
7:53 pm 19:53 Clear 62 16.7 19 -7.2 19 19 SW 3 6 30.12 1020 10 16.09344 0 0
8:53 pm 20:53 Clear 60 15.6 21 -6.1 22 22 WNW 5 7 30.12 1020 10 16.09344 0 0
9:53 pm 21:53 Clear 57 13.9 19 -7.2 23 23 NW 6 9 30.15 1021 10 16.09344 0 0
10:53 pm 22:53 Clear 59 15 11 -11.7 15 15 NNW 8 13 30.12 1020 10 16.09344 0 0
11:53 pm 23:53 Clear 57 13.9 9 -12.8 15 15 NNW 10 17 30.12 1020 10 16.09344 0 0

Powered by AerisWeather